User: anonymous   Login
Location: Unspecified
(0.0000°N, 0.0000°E)
Time: 19:02:25
(UTC+00:00)
Language:

STARLINK-11436 [DTC] - Orbit

View from above orbital plane
View from above orbital plane
View from above satellite
View from above satellite

Ground track
Ground track

The orbit is defined by the following mean orbital elements,

1 62887U          26145.53731557 +.00000000 +00000-0 +17553-2 0 00001
2 62887  42.9993  78.1611 0001021  82.9516 277.1468 15.70886255    00
Epoch (UTC): 25 May 2026 12:53:44
Eccentricity: 0.0001021
inclination: 42.9993°
perigee height: 356 km
apogee height: 357 km
right ascension of ascending node: 78.1611°
argument of perigee: 82.9516°
revolutions per day: 15.70886255
mean anomaly at epoch: 277.1468°

The dashed part of the orbit path shows where the satellite is in the earth's shadow,  

DLR